Hourly Data Report for October 11, 2013

All times are specified in Local Standard Time (LST). Add 1 hour to adjust for Daylight Saving Time where and when it is observed.

ST LEONARD CS
NEW BRUNSWICK

47°09'28.050" N
67°49'55.014" W
245.00 m
810I001
71019
WIY

Download Data

Hourly Data (October 2013)
Hourly Data Report for October 11, 2013
Temp Definition
°C
Dew Point Temp Definition
°C
Rel Hum Definition
%
Wind Dir Definition
10's deg

Wind Spd Definition
km/h
Visibility Definition
km
Stn Press Definition
kPa
Hmdx Definition


Wind Chill Definition


Weather Definition


TIME
00:00 8.1 6.7 91   0   99.17     LegendNANA
01:00 7.7 7.1 96 33 2   99.18     LegendNANA
02:00 8.7 5.7 81 34 6   99.19     LegendNANA
03:00 7.1 6.2 94   0   99.19     LegendNANA
04:00 7.2 5.7 90   0   99.21     LegendNANA
05:00 5.9 4.9 93 5 2   99.23     LegendNANA
06:00 5.4 4.7 95 26 2   99.28     LegendNANA
07:00 4.8 4.3 97   0   99.29     LegendNANA
08:00 8.4 6.9 90   0   99.31     LegendNANA
09:00 12.5 9.1 80 35 2   99.31     LegendNANA
10:00 16.0 10.3 69 26 2   99.31     LegendNANA
11:00 18.7 11.4 62 34 6   99.27     LegendNANA
12:00 20.3 11.2 56 33 4   99.26     LegendNANA
13:00 20.7 11.0 54 30 11   99.21     LegendNANA
14:00 21.3 10.9 51 32 9   99.17     LegendNANA
15:00 21.2 11.1 52 32 9   99.19     LegendNANA
16:00 17.9 11.4 66 3 11   99.23     LegendNANA
17:00 16.9 11.7 71 3 9   99.26     LegendNANA
18:00 15.1 10.8 75 3 7   99.32     LegendNANA
19:00 13.5 10.1 80 4 11   99.38     LegendNANA
20:00 12.6 9.5 81 4 6   99.46     LegendNANA
21:00 12.1 7.7 74 3 13   99.51     LegendNANA
22:00 10.4 6.4 76 2 13   99.54     LegendNANA
23:00 7.9 5.6 85 33 4   99.56     LegendNANA

Notes on Data Quality.

Legend

  • E = Estimated
  • M = Missing
  • NA = Not Available
  • ‡ = Partner data that is not subject to review by the National Climate Archives
Date modified: